Houlton, ME

6:04 AM EST on January 18, 2018 (GMT -0500)
Houlton International

Weather History for KHUL - December, 2012

Change the Weather History Date:

Sunday, December 30, 2012

  Actual Average Record
Temperature  
Mean Temperature 18 °F 14 °F  
Max Temperature 24 °F 24 °F 44 °F (1948)
Min Temperature 11 °F 4 °F -34 °F (1989)
Degree Days  
Heating Degree Days 47 51  
Month to date heating degree days 1268 1360  
Since 1 July heating degree days 3137 3468  
Cooling Degree Days 0 0  
Month to date cooling degree days 0 0  
Year to date cooling degree days 277 191  
Moisture  
Dew Point 14 °F    
Average Humidity 76    
Maximum Humidity 84    
Minimum Humidity 67    
Precipitation  
Precipitation 0.09 in 0.09 in 1.96 in (1962)
Month to date precipitation 3.62 3.20  
Year to date precipitation 46.33 39.89  
Sea Level Pressure  
Sea Level Pressure 29.40 in    
Wind  
Wind Speed 14 mph (NNW)    
Max Wind Speed 24 mph    
Max Gust Speed 32 mph    
Visibility 3 miles    
Events Fog , Snow    
T = Trace of Precipitation, MM = Missing Value Source: NWS Daily Summary

Daily Weather History Graph

Daily Weather History Graph

Search for Another Location

Airport or City:

Trip Planner

Search our weather history database for the weather conditions in past years. The results will help you decide how hot, cold, wet, or windy it might be!

Date:

Astronomy

Dec. 30, 2012 Rise Set
Actual Time 7:13 AM EST 3:54 PM EST
Civil Twilight 6:38 AM EST 4:29 PM EST
Nautical Twilight 6:00 AM EST 5:07 PM EST
Astronomical Twilight 5:24 AM EST 5:43 PM EST
Moon 6:31 PM EST (12/30) 8:12 AM EST (12/30)
Length of Visible Light 9h 50m
Length of Day
8h 41m
Waning Gibbous, 95% of the Moon is Illuminated
Dec 30
Waning Gibbous
Jan 4
Last Quarter
Jan 11
New
Jan 18
First Quarter
Jan 26
Full

Hourly Weather History & Observations

Time (EST) Temp. Windchill Dew Point Humidity Pressure Visibility Wind Dir Wind Speed Gust Speed Precip Events Conditions
12:24 AM 17.6 °F 8.2 °F 12.2 °F 79% 29.53 in 8.0 mi North 6.9 mph - 0.00 in Snow Light Snow
12:53 AM 18.0 °F 9.8 °F 14.0 °F 84% 29.54 in 2.0 mi NNE 5.8 mph - 0.00 in Snow Light Snow
1:01 AM 17.6 °F 8.2 °F 14.0 °F 86% 29.51 in 1.8 mi NNE 6.9 mph - 0.00 in Snow Light Snow
1:19 AM 19.4 °F 10.4 °F 15.8 °F 86% 29.51 in 1.2 mi North 6.9 mph - 0.00 in Snow Light Snow
1:53 AM 19.0 °F 8.2 °F 15.1 °F 85% 29.53 in 1.2 mi NNE 9.2 mph - 0.01 in Snow Light Snow
2:26 AM 19.4 °F 8.6 °F 15.8 °F 86% 29.48 in 0.8 mi North 9.2 mph - 0.00 in Snow Light Snow
2:53 AM 19.0 °F 5.0 °F 15.1 °F 85% 29.49 in 0.8 mi North 15.0 mph - 0.01 in Snow Light Snow
3:44 AM 17.6 °F 3.7 °F 15.8 °F 93% 29.42 in 0.8 mi North 13.8 mph - 0.01 in Snow Light Snow
3:53 AM 19.0 °F 6.8 °F 15.1 °F 85% 29.45 in 0.5 mi NNE 11.5 mph - 0.01 in Fog , Snow Snow
4:26 AM 19.4 °F 6.6 °F 15.8 °F 86% 29.40 in 0.8 mi North 12.7 mph - 0.00 in Snow Light Snow
4:53 AM 19.0 °F 6.8 °F 15.1 °F 85% 29.42 in 0.8 mi North 11.5 mph - 0.01 in Snow Light Snow
5:07 AM 19.4 °F 7.2 °F 15.8 °F 86% 29.38 in 0.8 mi North 11.5 mph - 0.00 in Snow Light Snow
5:53 AM 19.0 °F 5.6 °F 15.1 °F 85% 29.41 in 0.5 mi North 13.8 mph 21.9 mph 0.01 in Fog , Snow Snow
6:53 AM 19.9 °F 7.9 °F 16.0 °F 85% 29.38 in 0.8 mi North 11.5 mph 21.9 mph 0.01 in   Mist
7:37 AM 19.4 °F 5.0 °F 15.8 °F 86% 29.34 in 0.8 mi North 16.1 mph 24.2 mph N/A   Mist
7:53 AM 19.9 °F 5.7 °F 16.0 °F 85% 29.37 in 0.8 mi North 16.1 mph 23.0 mph N/A   Mist
8:25 AM 21.2 °F 8.9 °F 17.6 °F 86% 29.34 in 0.8 mi North 12.7 mph 20.7 mph N/A   Mist
8:36 AM 21.2 °F 8.3 °F 17.6 °F 86% 29.34 in 0.8 mi North 13.8 mph - N/A   Mist
8:53 AM 21.0 °F 8.1 °F 17.1 °F 85% 29.37 in 0.5 mi NNW 13.8 mph 23.0 mph N/A Fog Light Freezing Fog
9:12 AM 21.2 °F 7.8 °F 17.6 °F 86% 29.34 in 0.5 mi NNW 15.0 mph 19.6 mph 0.01 in Fog Light Freezing Fog
9:28 AM 21.2 °F 8.3 °F 17.6 °F 86% 29.34 in 0.5 mi North 13.8 mph 21.9 mph 0.01 in Fog Light Freezing Fog
9:53 AM 21.9 °F 9.8 °F 17.1 °F 82% 29.37 in 0.5 mi NNW 12.7 mph 23.0 mph 0.01 in   Haze
10:53 AM 21.9 °F 7.8 °F 18.0 °F 85% 29.34 in 0.5 mi NNW 17.3 mph 25.3 mph 0.01 in Fog Light Freezing Fog
11:30 AM 23.0 °F 8.7 °F 17.6 °F 80% 29.30 in 1.0 mi NNW 18.4 mph 29.9 mph N/A   Haze
11:53 AM 24.1 °F 11.5 °F 18.0 °F 77% 29.32 in 1.5 mi NNW 15.0 mph 28.8 mph 0.00 in Snow Light Snow
12:02 PM 24.8 °F 13.4 °F 17.6 °F 74% 29.30 in 1.2 mi NNW 12.7 mph 27.6 mph 0.00 in Snow Light Snow
12:53 PM 24.1 °F 10.6 °F 17.1 °F 75% 29.32 in 1.2 mi NNW 17.3 mph 21.9 mph 0.01 in Snow Light Snow
12:59 PM 23.0 °F 9.2 °F 17.6 °F 80% 29.30 in 2.0 mi NNW 17.3 mph 25.3 mph 0.00 in Snow Light Snow
1:09 PM 23.0 °F 8.7 °F 15.8 °F 74% 29.30 in 4.0 mi NNW 18.4 mph 31.1 mph 0.00 in   Overcast
1:53 PM 21.0 °F 5.4 °F 15.1 °F 78% 29.34 in 2.5 mi NW 20.7 mph 27.6 mph 0.00 in Snow Light Snow
2:03 PM 21.2 °F 8.3 °F 15.8 °F 80% 29.32 in 2.5 mi NNW 13.8 mph 24.2 mph 0.00 in Snow Light Snow
2:10 PM 21.2 °F 7.8 °F 14.0 °F 74% 29.32 in 3.0 mi NNW 15.0 mph 24.2 mph 0.00 in Snow Light Snow
2:22 PM 21.2 °F 7.8 °F 14.0 °F 74% 29.32 in 2.0 mi NNW 15.0 mph 24.2 mph 0.00 in Snow Light Snow
2:30 PM 21.2 °F 8.3 °F 15.8 °F 80% 29.33 in 2.0 mi NW 13.8 mph 27.6 mph 0.00 in Snow Light Snow
2:53 PM 21.0 °F 8.6 °F 14.0 °F 74% 29.37 in 3.0 mi NW 12.7 mph 24.2 mph 0.00 in   Haze
3:19 PM 19.4 °F 5.5 °F 14.0 °F 80% 29.35 in 5.0 mi NW 15.0 mph 21.9 mph 0.00 in   Haze
3:53 PM 19.9 °F 6.7 °F 12.9 °F 74% 29.40 in 2.5 mi NNW 13.8 mph 24.2 mph 0.00 in Snow Light Snow
4:03 PM 19.4 °F 6.6 °F 12.2 °F 74% 29.37 in 3.0 mi NW 12.7 mph - 0.00 in Snow Light Snow
4:12 PM 19.4 °F 7.2 °F 12.2 °F 74% 29.38 in 4.0 mi NW 11.5 mph 23.0 mph 0.00 in Snow Light Snow
4:24 PM 19.4 °F 8.6 °F 12.2 °F 74% 29.38 in 5.0 mi NW 9.2 mph 23.0 mph 0.00 in Snow Light Snow
4:53 PM 19.0 °F 8.2 °F 12.0 °F 74% 29.43 in 8.0 mi NW 9.2 mph 21.9 mph 0.00 in   Overcast
5:53 PM 18.0 °F 4.8 °F 10.0 °F 71% 29.46 in 8.0 mi NW 12.7 mph 25.3 mph N/A   Overcast
6:53 PM 18.0 °F 4.8 °F 10.0 °F 71% 29.49 in 8.0 mi NNW 12.7 mph 20.7 mph N/A   Overcast
7:03 PM 17.6 °F 2.7 °F 10.4 °F 73% 29.46 in 7.0 mi NW 16.1 mph 27.6 mph N/A   Overcast
7:53 PM 18.0 °F 3.6 °F 10.0 °F 71% 29.49 in 8.0 mi NW 15.0 mph 21.9 mph N/A   Overcast
8:53 PM 17.1 °F 3.6 °F 10.0 °F 74% 29.51 in 3.0 mi NW 12.7 mph 21.9 mph 0.00 in Snow Light Snow
9:53 PM 15.1 °F -1.6 °F 6.1 °F 68% 29.53 in 7.0 mi NW 18.4 mph 27.6 mph 0.00 in   Overcast
10:53 PM 12.0 °F -1.3 °F 3.0 °F 67% 29.55 in 10.0 mi WNW 10.4 mph 21.9 mph N/A   Scattered Clouds
11:53 PM 10.9 °F -4.7 °F 1.0 °F 64% 29.56 in 9.0 mi NW 13.8 mph 31.1 mph N/A   Clear